This demonstration page uses our WeatherBlox Daily Observations layout. Learn more.

Left ArrowRight Arrow

39.51506, -84.39828

Hourly Observations for June 14, 2016

Temp ( °F °C ) Dew Point ( °F °C ) Humidity (%) Winds ( mph kmh ) Pressure ( in mb ) Visibility ( mi km ) Precip ( " mm )
12:15 am 00:15 Clear 63 17.3 54 12.4 73 73 N N/A 29.91 1013 10 16 N/A
12:35 am 00:35 Clear 64 17.6 55 12.7 73 73 N N/A 29.91 1013 10 16 N/A
12:55 am 00:55 Clear 63 17.3 55 12.6 74 74 N N/A 29.91 1013 10 16 N/A
1:15 am 01:15 Clear 63 17 55 12.5 75 75 N N/A 29.91 1013 10 16 N/A
1:35 am 01:35 Clear 62 16.6 54 12.3 76 76 N N/A 29.91 1013 10 16 N/A
1:55 am 01:55 Clear 63 17 54 12.4 74 74 N N/A 29.91 1013 10 16 N/A
2:15 am 02:15 Clear 62 16.8 55 12.7 77 77 N N/A 29.91 1013 10 16 N/A
2:35 am 02:35 Clear 62 16.6 55 12.8 78 78 NNW 3 6 29.91 1013 10 16 N/A
2:55 am 02:55 Clear 62 16.6 55 12.5 77 77 N N/A 29.91 1013 10 16 N/A
3:15 am 03:15 Partly Cloudy 62 16.6 55 12.6 77 77 N N/A 29.91 1013 10 16 N/A
3:35 am 03:35 Partly Cloudy 62 16.6 55 12.6 77 77 N N/A 29.91 1013 10 16 N/A
3:55 am 03:55 Clear 62 16.6 55 12.7 78 78 N N/A 29.91 1013 10 16 N/A
4:15 am 04:15 Clear 61 16.2 54 12.4 78 78 N N/A 29.91 1013 10 16 N/A
4:35 am 04:35 Clear 61 16 54 12.1 78 78 N N/A 29.91 1013 10 16 N/A
4:55 am 04:55 Clear 62 16.6 55 12.6 77 77 N N/A 29.91 1013 10 16 N/A
5:15 am 05:15 Clear 61 16 54 12.2 78 78 N N/A 29.91 1013 10 16 N/A
5:35 am 05:35 Clear 61 16 54 12.2 78 78 N 5 7 29.91 1013 10 16 N/A
5:55 am 05:55 Hazy 61 16 54 12 77 77 N 3 6 29.94 1014 5 8 N/A
6:15 am 06:15 Partly Cloudy 62 16.6 55 12.5 77 77 N N/A 29.94 1014 10 16 N/A
6:35 am 06:35 Mostly Cloudy 63 17 55 12.6 75 75 N N/A 29.94 1014 10 16 N/A
6:55 am 06:55 Partly Cloudy 64 18 56 13.5 75 75 N N/A 29.94 1014 10 16 N/A
7:15 am 07:15 Sunny 67 19.2 58 14.3 73 73 N 3 6 29.94 1014 10 16 N/A
7:35 am 07:35 Sunny 67 19.5 57 14 71 71 N 5 7 29.94 1014 10 16 N/A
7:55 am 07:55 Sunny 69 20.8 59 15 70 70 NNE 5 7 29.94 1014 10 16 N/A
8:15 am 08:15 Sunny 69 20.8 56 13.4 63 63 NE 6 9 29.94 1014 10 16 N/A
8:35 am 08:35 Sunny 71 21.5 54 12.4 56 56 ENE 6 9 29.94 1014 10 16 N/A
8:55 am 08:55 Sunny 74 23.6 56 13.1 52 52 ENE 5 7 29.94 1014 10 16 N/A
9:15 am 09:15 Sunny 74 23.6 55 12.6 50 50 E 6 9 29.94 1014 10 16 N/A
9:35 am 09:35 Sunny 74 23.6 52 11.1 45 45 E 3 6 29.94 1014 10 16 N/A
9:55 am 09:55 Sunny 77 25.1 53 11.8 44 44 E 6 9 29.94 1014 10 16 N/A
10:15 am 10:15 Sunny 77 25.1 53 11.8 44 44 E 5 7 29.94 1014 10 16 N/A
10:35 am 10:35 Sunny 80 26.4 54 12.4 42 42 E 3 6 29.94 1014 10 16 N/A
10:55 am 10:55 Sunny 80 26.5 53 11.8 40 40 E 7 11 29.94 1014 10 16 N/A
11:15 am 11:15 Sunny 80 26.5 54 12 41 41 E 7 11 29.94 1014 10 16 N/A
11:35 am 11:35 Sunny 80 26.9 53 11.6 39 39 N N/A 29.94 1014 10 16 N/A
11:55 am 11:55 Sunny 81 27.2 53 11.9 39 39 ESE 6 9 29.94 1014 10 16 N/A
12:15 pm 12:15 Sunny 82 27.8 53 11.6 37 37 SE 5 7 29.91 1013 10 16 N/A
12:35 pm 12:35 Sunny 82 28 52 11 35 35 ESE 9 15 29.91 1013 10 16 N/A
12:55 pm 12:55 Sunny 83 28.4 53 11.8 36 36 E 8 13 29.91 1013 10 16 N/A
1:35 pm 13:35 Partly Cloudy 82 28 52 11.2 35 35 E 6 9 29.91 1013 10 16 N/A
1:55 pm 13:55 Partly Cloudy 84 29 50 10.2 31 31 E 6 9 29.88 1012 10 16 N/A
2:15 pm 14:15 Partly Cloudy 83 28.6 50 10 31 31 E 6 9 29.88 1012 10 16 N/A
2:35 pm 14:35 Mostly Cloudy 83 28.5 50 9.8 31 31 ENE 3 6 29.88 1012 10 16 N/A
2:55 pm 14:55 Mostly Cloudy 83 28.6 52 11.2 34 34 E 3 6 29.88 1012 10 16 N/A
3:15 pm 15:15 Mostly Cloudy 85 29.6 55 12.7 35 35 N 6 9 29.88 1012 10 16 N/A
3:35 pm 15:35 Partly Cloudy 87 30.8 55 12.9 33 33 N 6 9 29.88 1012 10 16 N/A
3:55 pm 15:55 Partly Cloudy 84 29.1 53 11.7 34 34 N 7 11 29.88 1012 10 16 N/A
4:15 pm 16:15 Partly Cloudy 84 28.9 53 11.5 34 34 NNW 6 9 29.88 1012 10 16 N/A
4:35 pm 16:35 Sunny 83 28.4 55 12.5 37 37 NNE 5 7 29.85 1011 10 16 N/A
4:55 pm 16:55 Sunny 83 28.6 53 11.9 36 36 N 5 7 29.85 1011 10 16 N/A
5:15 pm 17:15 Sunny 83 28.5 56 13.6 40 40 NNE 5 7 29.85 1011 10 16 N/A
5:35 pm 17:35 Partly Cloudy 83 28.2 54 12.2 37 37 ENE 6 9 29.85 1011 10 16 N/A
5:55 pm 17:55 Sunny 82 28 58 14.5 44 44 NNE 5 7 29.85 1011 10 16 N/A
6:15 pm 18:15 Sunny 82 28 59 15.1 45 45 NNE 5 7 29.85 1011 10 16 N/A
6:35 pm 18:35 Sunny 81 27.2 60 15.6 49 49 N N/A 29.85 1011 10 16 N/A
6:55 pm 18:55 Sunny 81 27.2 60 15.7 49 49 N 5 7 29.85 1011 10 16 N/A
7:15 pm 19:15 Partly Cloudy 81 27.2 62 16.4 52 52 NNW 3 6 29.85 1011 10 16 N/A
7:35 pm 19:35 Partly Cloudy 80 26.9 62 16.7 54 54 NNW 3 6 29.88 1012 10 16 N/A
7:55 pm 19:55 Partly Cloudy 80 26.7 63 17.1 56 56 N 3 6 29.88 1012 10 16 N/A
8:15 pm 20:15 Sunny 78 25.8 62 16.6 57 57 N 5 7 29.88 1012 10 16 N/A
8:35 pm 20:35 Sunny 77 25.1 62 16.6 59 59 NW 3 6 29.88 1012 10 16 N/A
8:55 pm 20:55 Sunny 80 26.5 61 16.1 53 53 N N/A 29.88 1012 10 16 N/A
9:15 pm 21:15 Clear 77 25.1 63 17.1 61 61 N N/A 29.88 1012 10 16 N/A
9:35 pm 21:35 Clear 74 23.6 62 16.5 65 65 N N/A 29.88 1012 10 16 N/A
9:55 pm 21:55 Clear 74 23.6 66 18.9 75 75 N N/A 29.88 1012 10 16 N/A
10:15 pm 22:15 Clear 72 22.2 64 17.8 76 76 N N/A 29.88 1012 10 16 N/A
10:35 pm 22:35 Clear 69 20.8 62 16.6 77 77 N N/A 29.88 1012 10 16 N/A
10:55 pm 22:55 Clear 70 21 62 16.6 76 76 N N/A 29.88 1012 10 16 N/A
11:15 pm 23:15 Clear 69 20.8 62 16.6 77 77 N N/A 29.88 1012 10 16 N/A
11:35 pm 23:35 Clear 69 20.8 62 16.6 77 77 N N/A 29.88 1012 10 16 N/A
11:55 pm 23:55 Clear 69 20.8 62 16.6 77 77 N N/A 29.88 1012 10 16 N/A

Powered by AerisWeather